ALSAT 1B

Last updated on Wed Oct 15 2025 00:02:30 GMT+0000 (Coordinated Universal Time)

1 41785U 16059C 25287.32756419 .00000647 00000+0 11068-3 0 9992 2 41785 97.7858 301.6684 0008061 301.7444 58.2978 14.71972665484404
UTC large
Height (km)
Speed (km/s)
/
Latitude / Longitude
Inclination (degrees)
Orbital Period (minutes)
Azimuth
Elevation
Range (km)
Doppler Factor

Next 0 passes for location: London (51.5072 / 0.1276)

Sorry there are no passes over London.